Weather History for Doylestown, PA

Change the Weather History Date:

Friday, November 2, 2012

  Actual Average (KTTN) Record (KTTN)
Temperature  
Mean Temperature 44 °F 50 °F  
Max Temperature 48 °F 60 °F 82 °F (1950)
Min Temperature 39 °F 40 °F 30 °F (2002)
Degree Days  
Heating Degree Days 22 15  
Month to date heating degree days 30  
Since 1 July heating degree days 427  
Cooling Degree Days 0 0  
Month to date cooling degree days 0  
Year to date cooling degree days 965  
Moisture  
Dew Point 34 °F    
Average Humidity 71    
Maximum Humidity 82    
Minimum Humidity 58    
Precipitation  
Precipitation 0.01 in 0.10 in 1.16 in (1897)
Month to date precipitation 0.19  
Year to date precipitation 39.62  
Sea Level Pressure  
Sea Level Pressure 29.71 in    
Wind  
Wind Speed 7 mph (West)    
Max Wind Speed 17 mph    
Max Gust Speed 29 mph    
Visibility 10 miles    
Events Rain    
T = Trace of Precipitation, MM = Missing Value Source: NWS Daily Summary

Daily Weather History Graph

Daily Weather History Graph

Search for Another Location

Airport:

Trip Planner

Search our weather history database for the weather conditions in past years. The results will help you decide how hot, cold, wet, or windy it might be!

Date:

Astronomy

Nov. 02, 2012 Rise Set
Actual Time 7:31 AM EDT 5:55 PM EDT
Civil Twilight 7:03 AM EDT 6:24 PM EDT
Nautical Twilight 6:31 AM EDT 6:56 PM EDT
Astronomical Twilight 5:59 AM EDT 7:27 PM EDT
Moon 8:40 PM EDT (11/2) 10:50 AM EDT (11/2)
Length of Visible Light 11h 20m
Length of Day
10h 23m
Waning Gibbous, 87% of the Moon is Illuminated
Nov 2
Waning Gibbous
Nov 6
Last Quarter
Nov 13
New
Nov 20
First Quarter
Nov 28
Full

Hourly Weather History & Observations

Time (EDT) Temp. Windchill Dew Point Humidity Pressure Visibility Wind Dir Wind Speed Gust Speed Precip Events Conditions
12:54 AM 44.1 °F 41.5 °F 37.0 °F 76% 29.65 in 10.0 mi West 4.6 mph - N/A   Overcast
1:54 AM 45.0 °F 41.8 °F 37.0 °F 74% 29.65 in 10.0 mi West 5.8 mph - N/A   Overcast
2:54 AM 45.0 °F 41.2 °F 36.0 °F 71% 29.65 in 10.0 mi West 6.9 mph 16.1 mph 0.00 in Rain Light Rain
3:54 AM 44.1 °F 39.0 °F 37.0 °F 76% 29.65 in 10.0 mi West 9.2 mph - 0.00 in   Overcast
4:54 AM 44.1 °F 40.1 °F 36.0 °F 73% 29.65 in 10.0 mi West 6.9 mph - N/A   Overcast
5:54 AM 43.0 °F 38.2 °F 35.1 °F 74% 29.65 in 10.0 mi West 8.1 mph - N/A   Overcast
6:54 AM 42.1 °F 38.4 °F 34.0 °F 73% 29.67 in 10.0 mi West 5.8 mph - N/A   Mostly Cloudy
7:54 AM 39.9 °F - 34.0 °F 79% 29.68 in 10.0 mi Calm Calm - N/A   Mostly Cloudy
8:54 AM 42.1 °F 38.4 °F 33.1 °F 70% 29.69 in 10.0 mi West 5.8 mph - N/A   Overcast
9:54 AM 43.0 °F 38.8 °F 34.0 °F 71% 29.70 in 10.0 mi WSW 6.9 mph - N/A   Partly Cloudy
10:54 AM 45.0 °F 41.8 °F 35.1 °F 68% 29.70 in 10.0 mi West 5.8 mph - N/A   Scattered Clouds
11:54 AM 45.0 °F 40.1 °F 34.0 °F 65% 29.69 in 10.0 mi West 9.2 mph - N/A   Overcast
12:54 PM 48.0 °F - 36.0 °F 63% 29.69 in 10.0 mi WNW 11.5 mph 16.1 mph N/A   Overcast
1:54 PM 46.9 °F - 33.1 °F 59% 29.67 in 10.0 mi WNW 12.7 mph - N/A   Overcast
2:54 PM 48.0 °F - 34.0 °F 58% 29.67 in 10.0 mi WNW 13.8 mph 23.0 mph 0.00 in   Overcast
3:54 PM 46.9 °F - 33.1 °F 59% 29.68 in 10.0 mi West 11.5 mph 19.6 mph N/A   Overcast
4:54 PM 46.0 °F 42.5 °F 34.0 °F 63% 29.71 in 10.0 mi West 6.9 mph 17.3 mph N/A   Overcast
5:54 PM 43.0 °F 38.8 °F 37.0 °F 80% 29.73 in 10.0 mi WNW 6.9 mph - 0.01 in   Overcast
6:54 PM 41.0 °F 36.4 °F 36.0 °F 82% 29.77 in 10.0 mi NW 6.9 mph 18.4 mph 0.00 in Rain Light Rain
7:54 PM 41.0 °F 35.2 °F 35.1 °F 79% 29.79 in 10.0 mi WNW 9.2 mph - 0.00 in   Overcast
8:54 PM 41.0 °F 35.8 °F 34.0 °F 76% 29.80 in 10.0 mi WNW 8.1 mph - N/A   Overcast
9:54 PM 42.1 °F 35.7 °F 30.9 °F 65% 29.82 in 10.0 mi WNW 11.5 mph 19.6 mph N/A   Overcast
10:54 PM 41.0 °F 32.5 °F 30.0 °F 65% 29.83 in 10.0 mi NW 17.3 mph 28.8 mph N/A   Overcast
11:54 PM 39.0 °F 32.3 °F 30.9 °F 73% 29.83 in 10.0 mi WNW 10.4 mph 16.1 mph N/A   Overcast